Regional Weather Roundup
Issued by NWS State College, PA

Home | Current Version | Previous Version | Text Only | Print | Product List | Glossary On
Versions: 1 2 3 4 5 6 7 8 9 10 11 12 13 14 15 16 17 18 19 20 21 22 23 24 25 26 27 28 29 30 31 32 33 34 35 36 37 38 39 40 41 42 43 44 45 46 47 48 49 50
000
ASUS41 KCTP 291310
RWRCTP

REGIONAL WEATHER ROUNDUP
NATIONAL WEATHER SERVICE STATE COLLEGE PA
900 AM EDT FRI APR 29 2016

Note: "fair" indicates few or no clouds below 12,000 feet with no
significant weather and/or obstructions to visibility.

* = STATION THAT DOES NOT REPORT PRECIPITATION /E.G. RAIN...SNOW...ETC/
    THUNDER OR FOG.

PAZ002>004-007>009-013>016-020>023-029>032-291400-
WESTERN PENNSYLVANIA

CITY           SKY/WX    TMP DP  RH WIND       PRES   REMARKS
ERIE           CLOUDY    48  41  76 NE5       30.01R
MEADVILLE      CLOUDY    43  42  97 VRB3      29.98R
FRANKLIN*      CLOUDY    43  39  87 E7        30.01R
NEW CASTLE     CLOUDY    46  45  96 NE3       30.00S
BEAVER COUNTY  CLOUDY    45  45 100 CALM      29.99R FOG
BUTLER*        CLOUDY    45  43  93 CALM      30.03R
PITTSBURGH INT CLOUDY    47  44  90 CALM      29.99R FOG
PITTSBURGH     CLOUDY    47  45  93 CALM      29.99R FOG
INDIANA*       CLOUDY    48  48 100 CALM      30.02R FOG
LATROBE        CLOUDY    48  48 100 SW5       30.00S FOG
WASHINGTON CO* CLOUDY    48  45  87 SW3       30.00F
$$

PAZ004>006-010>012-017>019-024>028-033>037-041-042-045-046-049>053-291400-
CENTRAL PENNSYLVANIA

CITY           SKY/WX    TMP DP  RH WIND       PRES   REMARKS
BRADFORD       CLOUDY    41  39  93 SE9       29.99S
DUBOIS         CLOUDY    42  41  96 SE6       29.98R FOG
CLEARFIELD     CLOUDY    43  41  93 SE5       30.00F FOG
JOHNSTOWN      FOG       44  40  85 S5        29.98R VSB 1/4
ALTOONA        CLOUDY    43  41  93 SE6       30.02S
STATE COLLEGE  CLOUDY    43  43 100 CALM      30.03S FOG
WILLIAMSPORT   CLOUDY    48  37  65 E12G18    30.05S
SELINSGROVE    CLOUDY    45  38  76 CALM      30.07F
FT INDIANTOWN  CLOUDY    43  42  99 NE3       30.08S
CAPITAL CITY   CLOUDY    46  43  89 E7        30.07F
HARRISBURG     LGT RAIN  45  42  89 E7        30.07S FOG
YORK           LGT RAIN  45  43  93 E5        30.06S
$$

PAZ038>040-043-044-047-048-054-055-060>062-067>071-291400-
EASTERN PENNSYLVANIA

CITY           SKY/WX    TMP DP  RH WIND       PRES   REMARKS
SCRANTON       CLOUDY    50  36  58 SE7       30.04F
MOUNT POCONO   CLOUDY    43  36  76 SE10      30.05S
ALLENTOWN      CLOUDY    50  39  66 E9        30.08S
QUAKERTOWN*    PTSUNNY   46  41  81 E9        30.08S
READING        CLOUDY    47  38  71 E6        30.08R
LANCASTER      CLOUDY    44  42  93 E7        30.08R FOG
COATESVILLE    CLOUDY    45  45 100 NE3       30.08R
POTTSTOWN      CLOUDY    46  43  89 NE5       30.09R
BLUE BELL      CLOUDY    46  43  87 E5        30.08R
DOYLESTOWN     CLOUDY    43  41  93 VRB3      30.08R
WILLOW GROVE   NOT AVBL
NORTH PHILA    CLOUDY    50  43  77 E10       30.10R
PHILADELPHIA   CLOUDY    50  40  68 E13G20    30.08R
$$



USA.gov is the U.S. government's official web portal to all federal, state and local government web resources and services.